PulseSat

PulseSat

GSAT0214 (GALILEO 18)

Last updated on April 21, 2019, 3:01 a.m. UTC

1 41862U 16069D   19110.70802387  .00000022  00000-0  00000+0 0  9993
2 41862  54.5950 173.6156 0003904 272.0510  87.9911  1.70473901 15073
UTC
Height (km)
Latitude
Longitude
Inclination
Orbital Period

Next 30 passes for location: Hong Kong

Rise time Rise Azimuth (degrees) Set time Set Azimuth (degrees) Duration Max altitude (degrees)

No matching passes for this satellites

PulseSat

PulseSat is the new satellites software and hardware trackering solution by Pulsely.
Satellite Two Line Element Set source: US Air Force Space Command

Download PulseSat for iOS
© 2017 Pulsely Limited